Theta_e
348 359 361 361 360 362 363 363 365 364 364 363 363 363 363 364 363 361 360 360 361 360 360 361 361 360 360 360 359 362 361 362 361 360 359 359 359 359 360 358 360 356 359
353 358 359 361 361 361 363 363 363 363 363 364 364 364 364 363 362 361 358 357 356 356 358 359 359 359 358 359 359 360 360 360 360 359 358 358 358 357 357 357 359 357 358
355 359 356 361 361 361 361 362 362 362 362 362 363 363 362 362 359 359 359 358 355 354 355 357 357 357 357 358 358 359 358 358 358 357 356 353 355 357 356 356 357 356 356
356 359 356 359 361 360 360 361 361 361 361 361 361 361 360 359 358 357 358 358 355 354 354 355 355 355 356 357 357 358 358 357 356 355 351 350 353 356 356 356 356 356 355
356 359 357 360 361 360 359 360 360 360 360 359 358 357 357 357 358 359 360 359 357 354 353 354 355 357 357 356 356 356 356 356 353 349 347 349 352 355 355 355 355 354 355
355 358 358 360 361 360 358 359 360 359 360 358 357 356 356 357 359 360 360 359 358 355 354 354 355 357 357 355 354 353 354 354 351 347 347 352 352 354 354 354 354 354 354
352 355 356 361 361 359 358 358 359 360 359 359 358 356 356 358 359 360 360 360 358 355 355 355 355 357 357 356 355 354 352 352 345 344 348 350 350 354 353 352 353 353 353
351 353 354 360 360 359 359 359 360 360 359 359 359 359 359 358 359 360 360 361 360 357 356 356 356 357 356 356 355 356 352 348 342 344 345 347 350 352 351 351 351 352 352
351 351 353 356 357 359 359 359 360 360 360 360 360 360 360 359 359 359 360 359 361 360 359 357 356 356 356 355 354 354 356 348 346 342 343 346 351 350 350 350 350 350 351
348 350 356 356 354 353 355 358 359 359 360 360 360 359 359 359 358 357 357 359 359 359 357 356 355 354 353 354 354 354 355 356 349 342 344 346 350 349 349 349 350 350 350
347 351 354 353 353 351 348 354 358 358 358 358 358 358 357 353 354 354 354 357 356 356 356 355 355 355 354 353 354 355 353 352 350 343 344 349 350 350 349 349 348 347 347
341 348 352 353 353 351 348 351 351 353 354 353 354 356 353 353 353 351 352 353 354 354 354 355 354 353 352 352 353 354 356 351 346 346 343 351 350 350 349 348 348 347 347
344 346 351 352 353 350 347 350 350 351 353 354 356 356 354 351 350 348 348 348 351 352 350 351 351 350 350 351 352 352 355 351 348 348 345 351 352 350 350 350 350 349 348
342 346 348 350 349 351 349 349 350 349 352 351 353 356 352 349 348 346 344 345 347 348 349 349 348 350 351 351 350 351 352 353 351 349 346 352 353 353 351 351 351 350 349
340 344 346 348 349 352 351 350 350 349 351 352 353 353 350 348 346 346 345 344 343 346 347 347 347 347 348 349 350 351 350 352 352 350 347 352 354 355 354 352 351 351 351
342 344 346 347 349 352 350 351 349 350 350 352 352 352 352 349 348 345 345 344 344 346 347 348 346 345 345 346 348 350 351 351 352 352 349 348 354 355 356 355 353 353 353
341 345 345 346 349 352 352 351 349 349 349 348 351 354 352 351 349 347 344 345 345 348 348 349 348 347 345 345 347 349 351 351 351 351 350 349 352 355 356 356 356 355 354
339 343 347 348 348 352 351 350 349 350 349 348 348 351 352 351 351 349 345 344 346 348 349 348 348 346 346 345 343 346 347 351 350 349 349 350 350 351 355 356 356 356 356
343 342 344 347 348 351 351 351 351 352 350 349 349 347 348 350 350 349 347 346 349 346 346 346 345 346 345 346 344 345 348 349 350 348 347 347 348 351 353 354 354 354 355
344 345 345 346 347 350 349 350 349 348 349 349 348 346 346 345 346 348 348 349 349 346 346 346 346 346 345 344 342 343 346 347 349 348 348 347 347 350 351 355 359 352 353
341 342 344 344 346 345 343 342 342 340 342 345 346 345 344 346 346 348 346 348 350 347 347 348 347 346 346 346 341 342 343 344 344 346 347 347 347 349 351 354 357 354 353
335 337 339 343 344 345 344 344 344 344 345 347 347 344 344 345 347 349 348 348 346 341 339 339 339 334 333 336 331 334 330 336 340 343 345 346 347 349 348 350 351 353 352
327 330 332 334 336 341 345 345 345 343 341 340 340 339 340 339 340 338 339 341 342 339 337 338 336 333 330 331 330 327 324 322 327 339 339 341 343 344 347 348 350 351 351
324 326 329 330 331 336 343 344 344 341 337 336 335 333 329 330 330 332 336 337 337 337 335 334 336 336 332 327 331 331 331 332 324 323 335 336 336 337 343 342 347 347 347
325 326 326 328 329 332 336 338 335 330 327 326 325 324 321 320 320 321 323 325 326 331 331 331 331 330 330 328 329 331 332 331 332 329 324 330 333 336 336 336 342 343 344
323 323 324 325 325 327 328 331 332 327 322 321 321 320 319 318 316 317 319 321 321 320 321 322 325 328 329 328 328 327 328 326 327 328 325 326 330 335 337 338 338 340 341
Wind_Speed
14 17 18 17 15 15 16 17 17 18 19 19 18 18 17 16 15 14 13 13 12 13 14 14 15 15 15 15 15 13 12 14 14 16 16 15 15 14 14 14 14 15 15
20 19 19 17 17 16 15 17 17 18 18 18 18 17 17 15 15 14 13 13 12 13 14 14 14 14 14 15 14 13 14 14 13 15 15 14 13 14 14 13 12 15 15
22 19 18 16 17 17 16 15 17 17 17 17 17 16 16 15 14 14 13 12 13 12 13 13 13 14 14 14 14 14 14 14 13 13 8 9 12 13 13 14 14 15 14
21 19 18 18 16 18 17 17 16 16 16 16 16 16 16 14 14 13 13 12 13 13 13 13 14 13 14 14 13 13 13 14 13 10 7 8 10 12 13 13 13 14 13
19 18 16 18 17 17 18 18 17 16 15 15 15 15 15 14 13 12 11 11 12 12 14 13 13 13 13 13 12 12 12 12 9 4 9 7 8 11 12 12 12 12 9
18 19 18 18 17 17 18 18 17 17 16 15 15 15 15 14 12 11 11 11 12 12 13 13 13 12 12 12 10 9 10 10 6 7 6 8 8 11 10 11 11 12 12
17 17 17 17 16 17 18 17 17 17 16 15 15 14 14 13 12 10 11 11 11 12 12 12 12 10 9 9 8 7 9 9 6 7 7 6 9 7 9 10 10 10 12
17 16 15 17 16 16 16 16 15 15 15 15 14 13 12 12 11 11 9 10 10 10 10 11 10 8 7 6 6 7 9 8 6 6 6 6 9 8 9 8 9 9 10
16 15 13 16 15 15 15 15 14 14 13 12 12 11 10 10 8 7 8 9 9 10 8 8 8 7 7 5 5 5 10 10 6 5 6 4 8 10 10 9 8 8 8
13 14 15 14 15 14 14 15 15 14 13 12 11 11 10 9 8 8 7 9 10 10 9 8 7 6 5 5 4 3 6 11 7 7 5 4 9 9 10 10 9 8 8
12 13 15 15 14 13 13 13 14 15 13 13 12 11 8 7 8 9 6 8 8 7 8 6 5 5 4 4 3 4 8 4 6 5 4 10 11 11 10 10 10 9 9
17 14 14 15 14 13 9 12 11 11 10 9 10 10 7 7 6 5 5 5 6 6 6 5 4 4 6 4 4 6 5 5 6 6 5 12 13 13 12 11 11 11 10
16 12 15 14 13 14 11 9 6 6 6 7 10 9 7 6 6 5 4 5 5 6 5 7 6 6 5 4 4 4 4 5 4 5 6 13 12 13 13 12 11 11 10
17 16 15 14 11 13 8 8 8 7 7 6 8 10 7 5 5 5 4 5 5 4 4 5 4 5 6 6 6 6 7 6 5 4 5 13 13 13 13 13 12 12 11
16 16 12 11 10 12 10 7 8 7 7 7 8 9 7 6 6 5 4 4 4 4 5 5 5 5 6 7 6 7 7 7 7 5 4 13 13 13 14 14 14 14 13
14 14 13 12 9 12 10 10 7 7 7 6 7 7 9 6 5 5 5 5 5 5 5 5 5 6 6 6 7 8 8 7 8 7 6 8 13 13 14 15 16 16 16
13 13 13 12 11 13 11 10 7 7 7 6 6 8 8 8 7 6 6 6 5 5 7 5 6 6 6 6 9 8 7 9 8 9 8 7 10 15 15 15 16 16 16
12 14 13 12 13 14 11 9 7 7 7 6 5 5 8 8 8 7 6 6 5 5 5 5 5 6 6 7 8 8 7 7 10 10 8 8 9 9 15 19 18 18 17
13 13 14 14 14 14 12 8 7 7 6 6 5 6 7 9 9 8 7 6 5 5 6 6 6 6 7 7 7 7 7 7 8 8 11 12 11 10 9 13 20 18 18
11 13 14 12 12 12 8 6 5 5 5 5 5 4 7 8 10 9 8 8 6 6 6 6 7 5 6 5 7 6 6 7 8 9 11 10 11 13 14 14 9 12 16
7 10 12 12 11 9 8 8 6 7 6 5 4 4 5 7 9 10 8 6 4 5 7 7 5 4 1 1 4 4 5 6 8 8 9 9 12 11 11 12 8 6 8
6 6 7 10 11 9 8 7 4 4 4 3 3 4 3 3 3 4 4 4 4 4 5 4 2 1 2 5 3 1 4 2 2 7 8 10 13 9 11 12 12 13 11
6 5 7 8 8 8 10 7 4 5 3 3 4 4 3 3 4 3 3 2 2 4 5 6 5 10 5 4 10 4 1 4 5 3 5 5 7 8 10 11 12 14 13
6 6 6 7 8 6 9 10 11 7 5 2 3 4 5 7 6 7 5 3 2 2 2 4 4 5 4 5 4 6 7 5 6 8 5 5 5 5 11 7 10 10 10
6 7 7 8 7 7 7 8 7 7 6 4 5 6 6 6 8 7 6 5 4 2 2 3 3 3 3 2 6 3 8 6 11 11 11 6 5 6 7 7 8 8 9
6 7 7 9 9 8 8 8 10 10 8 5 5 5 4 4 4 7 6 5 6 5 5 4 5 4 4 5 5 5 6 5 8 8 9 11 12 6 6 7 9 10 9
Wind_Direction
168 155 150 150 145 137 128 121 120 121 124 128 132 132 129 127 125 118 112 105 100 102 101 99 100 102 102 103 102 104 104 102 104 104 101 100 102 99 97 105 117 105 103
154 155 154 151 146 139 129 123 118 116 121 126 128 127 126 124 123 121 117 110 107 107 107 106 108 110 107 102 100 99 104 100 103 103 106 101 101 102 103 99 93 98 101
152 150 156 153 146 140 133 125 120 120 123 122 122 122 121 123 125 122 119 118 115 112 113 114 114 113 111 106 100 102 105 105 99 102 125 112 107 108 107 104 104 103 102
151 151 154 156 147 142 138 130 124 122 120 119 121 122 124 126 128 126 125 122 118 119 117 118 119 119 116 108 103 106 109 108 109 127 117 117 112 110 108 108 106 104 103
153 154 151 153 148 146 143 136 131 127 122 120 123 127 130 132 130 127 127 123 122 123 122 122 122 119 118 111 111 104 104 109 106 152 107 115 112 112 113 115 117 114 102
155 152 153 152 151 148 145 139 135 132 130 129 129 132 135 135 132 133 131 130 129 130 126 127 126 124 127 126 117 116 123 116 160 108 108 100 106 106 110 111 111 113 112
154 156 154 151 152 148 147 142 139 137 135 136 137 140 142 140 137 137 137 136 132 132 128 131 130 132 142 142 138 126 136 140 152 134 125 131 112 117 123 120 117 119 116
154 159 159 150 154 150 148 146 142 139 139 139 140 142 142 142 145 145 143 136 135 132 136 138 140 142 148 162 174 160 152 162 169 136 148 147 122 141 131 127 125 124 120
159 161 161 163 156 152 149 149 146 142 142 140 137 136 137 146 148 146 146 148 147 136 141 139 136 147 159 171 186 179 171 175 164 156 156 161 153 152 146 145 146 135 127
161 165 165 169 165 163 159 156 152 148 144 140 139 140 149 149 151 150 136 135 144 142 143 142 149 166 177 180 193 205 177 178 187 162 176 143 172 166 162 157 160 157 152
168 172 173 173 168 170 163 160 157 153 152 149 151 151 154 169 172 166 117 142 147 152 145 160 172 180 196 210 213 195 173 179 186 187 182 151 183 181 175 173 167 171 167
174 173 180 174 174 170 167 163 166 162 169 173 170 168 179 170 173 189 158 160 156 164 156 181 197 219 223 226 195 194 216 194 189 192 198 178 193 187 183 184 178 176 178
176 175 181 179 176 176 173 167 171 171 172 174 174 175 176 172 179 188 177 179 181 178 197 193 201 224 239 257 240 242 225 210 205 207 193 190 201 199 189 190 190 186 186
178 185 181 180 174 183 173 179 172 176 178 183 181 179 176 184 188 192 196 185 191 192 198 223 229 238 241 238 253 258 242 226 209 217 200 201 201 208 207 196 201 199 197
181 180 181 181 177 183 184 177 180 184 185 196 188 187 188 193 194 199 200 207 208 193 212 214 237 245 243 240 234 241 253 249 236 231 225 200 206 216 210 212 207 208 209
182 184 181 185 181 186 190 183 187 187 185 206 201 197 199 206 200 205 212 219 224 219 217 227 226 239 246 248 240 240 235 231 229 228 230 209 211 218 225 219 218 214 210
186 184 190 187 185 191 190 190 193 202 195 209 213 211 214 215 213 226 228 231 235 235 240 238 238 230 240 243 246 238 238 233 225 223 226 233 207 216 225 227 225 224 223
186 189 188 188 192 193 191 188 199 200 210 214 221 231 231 236 234 233 240 241 244 256 263 256 260 259 250 242 244 240 237 232 232 229 230 229 232 233 214 226 222 223 221
192 187 190 195 197 196 194 195 200 205 213 217 223 233 241 248 252 250 253 255 245 253 260 266 263 258 265 263 259 255 254 242 231 232 234 233 234 244 243 225 222 224 225
190 196 195 193 197 191 191 191 201 209 214 218 233 253 264 256 251 249 253 258 252 258 256 252 258 253 272 311 299 278 263 267 265 247 238 236 235 237 243 243 247 229 229
185 197 196 192 189 181 188 188 205 215 209 208 201 230 285 279 262 251 259 270 271 282 286 269 259 276 358 339 281 271 265 256 250 256 253 242 237 229 229 237 240 227 223
152 162 182 194 185 184 184 183 203 205 231 242 172 131 69 305 286 289 273 207 193 169 176 174 183 148 81 53 62 313 334 326 289 265 262 259 252 239 237 233 237 225 224
107 141 142 149 148 172 186 174 141 124 101 159 161 125 116 85 61 39 32 303 230 182 181 182 212 188 171 171 140 169 250 269 334 273 251 259 265 250 254 244 230 224 225
100 107 119 127 130 140 172 186 192 207 170 129 112 81 72 55 42 25 3 334 327 343 259 242 236 240 197 196 197 220 221 239 226 266 211 220 214 259 255 243 248 232 222
124 116 114 119 114 114 125 145 136 111 104 111 110 101 76 60 51 42 29 25 21 357 290 251 250 252 234 285 259 204 208 204 236 251 270 245 218 207 209 248 243 243 228
132 132 125 119 110 113 113 121 132 131 128 118 110 109 94 73 60 47 45 45 44 38 29 9 354 315 263 244 245 234 228 219 223 231 246 258 259 227 214 208 222 231 229